Regional Weather Roundup
Issued by NWS

Home | Current Version | Previous Version | Graphics & Text | Print | Product List | Glossary On
Versions: 1 2 3 4 5 6 7 8 9 10 11 12 13 14 15 16 17 18 19 20 21 22 23 24 25 26 27 28 29 30 31 32 33 34 35 36 37 38 39 40 41 42 43 44 45 46 47 48 49 50
000
ASUS43 KOAX 251602
RWRNE

WEATHER ROUNDUP FOR NEBRASKA
NATIONAL WEATHER SERVICE OMAHA NE
1000 AM CST SUN JAN 25 2015

NOTES: SATELLITE DATA IS BEING USED TO AUGMENT CLOUD COVER ABOVE
       12000 FEET.
       "FAIR" INDICATES FEW OR NO CLOUDS BELOW 12,000 FEET WITH NO
       SIGNIFICANT WEATHER AND/OR OBSTRUCTIONS TO VISIBILITY.

  * THESE STATIONS DO NOT REPORT WEATHER SUCH AS RAIN...SNOW OR FOG.

NEZ001>004-019>022-054>056-251700-
NEBRASKA PANHANDLE

CITY           SKY/WX    TMP DP  RH WIND       PRES   REMARKS
SCOTTSBLUFF    CLOUDY    36  29  75 N9        30.14R WCI  29
ALLIANCE       CLOUDY    38  29  70 W17       30.09R WCI  28
CHADRON        CLOUDY    40  28  62 NW14      30.09R WCI  32
SIDNEY         SUNNY     40  28  62 NW14      30.12S WCI  32
$$

NEZ057>060-069>072-079>082-251700-
SOUTHWEST NEBRASKA

CITY           SKY/WX    TMP DP  RH WIND       PRES   REMARKS
NORTH PLATTE   SUNNY     36  26  67 NW14      30.06S WCI  27
IMPERIAL       SUNNY     38  26  62 NW9       30.09S WCI  31
MCCOOK         SUNNY     43  24  47 NW24G37   30.06R
$$

NEZ005>010-023>029-035>040-094-251700-
NORTH CENTRAL NEBRASKA

CITY           SKY/WX    TMP DP  RH WIND       PRES   REMARKS
VALENTINE      CLOUDY    36  28  73 NW15      30.05R WCI  27
BROKEN BOW     PTSUNNY   39  29  67 N30G39    30.01R WCI  27
ORD            CLOUDY    39  30  70 N22       30.00R WCI  29
$$

NEZ041-046>049-061>064-073>077-083>087-251700-
SOUTH CENTRAL NEBRASKA

CITY           SKY/WX    TMP DP  RH WIND       PRES   REMARKS
GRAND ISLAND   CLOUDY    39  31  72 NW23G31   29.99R WCI  28
HASTINGS       CLOUDY    40  30  67 N23G37    29.98R WCI  30
KEARNEY *      CLOUDY    39  28  65 NW18G26   30.02R WCI  30
$$

NEZ011>018-030>034-042>045-251700-
NORTHEAST NEBRASKA

CITY           SKY/WX    TMP DP  RH WIND       PRES   REMARKS
NORFOLK        CLOUDY    34  31  88 N14       29.97R WCI  25
COLUMBUS *     CLOUDY    36  27  69 N15G22    29.97R WCI  26
TEKAMAH        CLOUDY    37  33  85 N21       29.93R WCI  26
$$

NEZ050>053-065>068-078-088>093-251700-
SOUTHEAST NEBRASKA

CITY           SKY/WX    TMP DP  RH WIND       PRES   REMARKS
LINCOLN        PTSUNNY   38  31  76 N25G32    29.92R WCI  27
OMAHA EPPLEY   CLOUDY    36  33  89 N18       29.90R WCI  26
FALLS CITY     LGT RAIN  37  32  82 NW21G30   29.83R WCI  26
$$

NEZ044-045-051>053-067-251700-
OMAHA AREA

CITY           SKY/WX    TMP DP  RH WIND       PRES   REMARKS
OMAHA EPPLEY   CLOUDY    36  33  89 N18       29.90R WCI  26
OFFUTT AFB     CLOUDY    37  32  85 N18G30    29.89R WCI  26
$$


USA.gov is the U.S. government's official web portal to all federal, state and local government web resources and services.